Regional Weather Roundup
Issued by NWS

Home | Current Version | Previous Version | Graphics & Text | Print | Product List | Glossary On
Versions: 1 2 3 4 5 6 7 8 9 10 11 12 13 14 15 16 17 18 19 20 21 22 23 24 25 26 27 28 29 30 31 32 33 34 35 36 37 38 39 40 41 42 43 44 45 46 47 48 49 50
000
ASUS43 KIND 011709
RWRIN

WEATHER ROUNDUP FOR INDIANA
NATIONAL WEATHER SERVICE INDIANAPOLIS IN
100 PM EDT SAT AUG 01 2015

NOTE: "FAIR" INDICATES FEW OR NO CLOUDS BELOW 12,000 FEET WITH NO
SIGNIFICANT WEATHER AND/OR OBSTRUCTIONS TO VISIBILITY.

* - STATION DOES NOT REPORT WEATHER SUCH AS PRECIPITATION OR FOG.

+ - STATION NOT QUALITY CONTROLLED BY THE NATIONAL WEATHER SERVICE.
    USE DATA WITH CAUTION...ESPECIALLY DEWPOINT AND RELATIVE
    HUMIDITY OBSERVATIONS.

INZ001>003-010>013-019-020-011800-
NORTHWEST INDIANA

CITY           SKY/WX    TMP DP  RH WIND       PRES   REMARKS
GARY /AIRPORT/ PTSUNNY   82  54  36 W12       30.00S
KNOX *+        MOSUNNY   81  54  39 NW5       30.00S
LA PORTE +     SUNNY     83  50  31 NW7       30.01S
MICHIGAN CITY+ SUNNY     81  46  30 W7        30.00S
MONTICELLO +   SUNNY     81  55  41 NW5       30.02S
RENSSELAER +   MOSUNNY   81  55  41 W7        30.03S
VALPARAISO     CLOUDY    80  54  40 NW7       30.01S

$$

LMZ046-743>745-011800-
SOUTHERN LAKE MICHIGAN

STATION/POSITION TIME  TEMP    WIND        PRES    WAVE
                       AIR SEA DIR/SP/G            HT
                 (UTC) (F)     (DEG/KT/KT) (MB)    (FT)
BURNS HARBOR     1600   76     260/  5/  6 1016.3R
MICHIGAN CITY    1600   73     220/  9/ 10   N/A
5NW MICH CITY    1700   74 74  240/  6/  8   N/A     2

$$

INZ004-005-014>016-021>024-011800-
NORTH CENTRAL INDIANA

CITY           SKY/WX    TMP DP  RH WIND       PRES   REMARKS
ELKHART        MOSUNNY   81  52  36 W8        29.99S
GOSHEN         MOSUNNY   79  57  46 W16G23    29.99S
LOGANSPORT +   SUNNY     81  43  26 W6        30.03S
PERU/GRISSOM   SUNNY     80  54  40 W8        30.01F
ROCHESTER +    SUNNY     82  52  34 W10       30.02S
SOUTH BEND     SUNNY     82  50  32 NW10      30.00S
WARSAW +       SUNNY     81  54  39 W9G16     30.01S

$$

INZ006>009-017-018-025>027-011800-
NORTHEAST INDIANA

CITY           SKY/WX    TMP DP  RH WIND       PRES   REMARKS
ANGOLA *+      SUNNY     81  55  41 W8        29.98F
AUBURN +       MOSUNNY   81  50  34 W9        30.00S
FORT WAYNE     PTSUNNY   81  54  39 NW6G20    30.00F
HUNTINGTON +   SUNNY     79  55  44 W7        30.01S

$$

INZ028-029-035-036-043>045-051>053-011800-
WEST CENTRAL INDIANA

CITY           SKY/WX    TMP DP  RH WIND       PRES   REMARKS
CRAWFORDSVL +  SUNNY     77  51  39 W8          N/A
GREENCASTLE +  SUNNY     79  48  34 NW7       30.06S
LAFAYETTE      SUNNY     80  57  45 W9        30.03S
TERRE HAUTE    SUNNY     83  53  35 N9        30.06R

$$

INZ030>032-037>040-046>048-054>057-064-065-011800-
CENTRAL INDIANA

CITY           SKY/WX    TMP DP  RH WIND       PRES   REMARKS
ANDERSON       MOSUNNY   82  46  28 NW9       30.04S
COLUMBUS       MOSUNNY   81  45  28 NW8       30.04S
FRANKFORT +    SUNNY     81  57  43 W7        30.06S
GREENWOOD *+   SUNNY     81  48  32 NW8       30.04F
INDIANAPOLIS   MOSUNNY   81  51  35 NW10      30.03S
-EAGLE CREEK   SUNNY     80  52  37 N7        30.04S
KOKOMO *+      SUNNY     82  55  39 NW9       30.03S
MARION +       SUNNY     79  55  43 NW8       30.03S
MT COMFORT *+  SUNNY     81  37  21 N10       30.04S
SHELBYVILLE    SUNNY     82  55  39 NW9       30.03S
ZIONSVILLE +   SUNNY     79  53  40 NW6       30.05F

$$

INZ033-034-041-042-049-050-058-059-011800-
EAST CENTRAL INDIANA

CITY           SKY/WX    TMP DP  RH WIND       PRES   REMARKS
MUNCIE         SUNNY     77  54  44 NW14      30.03R

$$

INZ060-061-067>069-081>083-085>088-011800-
SOUTHWEST INDIANA

CITY           SKY/WX    TMP DP  RH WIND       PRES   REMARKS
EVANSVILLE     SUNNY     85  56  37 N6        30.05S
HUNTINGBURG *+ SUNNY     82  59  44 N8        30.05S
WASHINGTON +   SUNNY     82  50  32 N8        30.04F

$$

INZ062-063-066-070>080-084-089>092-011800-
SOUTH CENTRAL AND SOUTHEAST INDIANA

CITY           SKY/WX    TMP DP  RH WIND       PRES   REMARKS
BLOOMINGTON    SUNNY     80  55  42 VRB5      30.06S
MADISON *+     SUNNY     81  52  36 W6        30.05S
NORTH VERNON + SUNNY     82  52  34 NW9       30.04F
SEYMOUR +      SUNNY     82  57  42 NW6       30.03S

$$



USA.gov is the U.S. government's official web portal to all federal, state and local government web resources and services.